Flag for Canada Weather past 2 weeks in Stephenville, Newfoundland and Labrador, Canada

36 °F

Passing clouds.

Feels Like: 25 °F
Forecast: N/A
Wind: 20 mph from South

Location: Stephenville

Current Time: Nov 26, 2015 at 6:20:24 PM

Latest Report: Nov 26, 2015 at 5:30 PM

Visibility: 15 mi

Pressure: 30.75 "Hg

Humidity: 75%

Dew point: 28 °F

Location of StephenvilleLocation

Historic Weather in Stephenville — Graph


Stephenville temperature yesterday

Maximum temperature yesterday: 28 °F (at 12:30 AM)
Minimum temperature yesterday: 27 °F (at 5:30 AM)
Average temperature yesterday: 28 °F

Past Weeks' High & Low Weather Summary

High55 °F (Nov 23, 10:30 AM)100% (Nov 21, 9:30 PM)30.92 "Hg (Nov 21, 9:30 PM)
Low25 °F (Nov 12, 6:30 AM)53% (Nov 12, 1:30 PM)29.40 "Hg (Nov 14, 2:30 PM)
Average36 °F80%30.10 "Hg
* Reported Nov 11 4:30 PM — Nov 26 4:30 PM, Stephenville, Weather by CustomWeather, © 2015

Note: Actual official high and low records may vary slightly from our data, if they occured in-between our weather recording intervals... More about our weather records


Stephenville weather history for previous 24 hours

Time TempWeatherWind HumidityBarometerVisibility
4:30 PM
Thu, Nov 26
36 °FPartly cloudy.21 mph75%30.76 "Hg15 mi
3:30 PM37 °FPartly sunny.18 mph70%30.78 "Hg15 mi
2:30 PM37 °FBroken clouds.20 mph70%30.80 "Hg15 mi
1:30 PM37 °FPartly sunny.18 mph65%30.84 "Hg15 mi
12:30 PM37 °FPartly sunny.21 mph70%30.86 "Hg15 mi
11:30 AM37 °FPartly sunny.18 mph70%30.89 "Hg15 mi
10:30 AM34 °FPartly sunny.16 mph75%30.91 "Hg15 mi
9:30 AM34 °FPartly sunny.15 mph75%30.92 "Hg15 mi
8:30 AM36 °FPartly sunny.17 mph65%30.92 "Hg15 mi
8:24 AM36 °FPartly sunny.18 mph65%30.91 "Hg15 mi
7:30 AM30 °FPartly sunny.7 mph80%30.91 "Hg15 mi
6:30 AM28 °FPassing clouds.6 mph74%30.90 "Hg15 mi
5:30 AM28 °FPassing clouds.10 mph74%30.90 "Hg15 mi
4:30 AM28 °FPassing clouds.7 mph86%30.90 "Hg15 mi
4:22 AM28 °FPassing clouds.8 mph80%30.90 "Hg15 mi
3:30 AM28 °FSnow flurries. Mostly cloudy.14 mph86%30.88 "Hg6 mi
2:30 AM28 °FPartly cloudy.9 mph86%30.87 "Hg12 mi
1:30 AM28 °FOvercast.8 mph69%30.84 "Hg15 mi
12:30 AM28 °FPassing clouds.14 mph69%30.84 "Hg15 mi
11:30 PM
Wed, Nov 25
28 °FPassing clouds.6 mph64%30.82 "Hg15 mi
10:30 PM28 °FPassing clouds.5 mph64%30.80 "Hg15 mi
9:30 PM28 °FPassing clouds.6 mph64%30.78 "Hg15 mi
8:30 PM28 °FPassing clouds.10 mph69%30.75 "Hg15 mi
7:30 PM28 °FSnow flurries. Passing clouds.12 mph74%30.71 "Hg15 mi
6:30 PM28 °FSnow flurries. Overcast.10 mph86%30.67 "Hg10 mi
Weather by CustomWeather, © 2015

See weather overviewHow to use our weather pages